Moffett NAS, CA

7:51 AM PDT on April 25, 2017 (GMT -0700)
Moffett Federal Air Field

Weather History for KNUQ - June, 2007

Change the Weather History Date:

Friday, June 22, 2007

  Actual Average Record
Temperature  
Mean Temperature 66 °F 67 °F  
Max Temperature 79 °F 77 °F 99 °F (1989)
Min Temperature 55 °F 57 °F 51 °F (2003)
Degree Days  
Heating Degree Days 0    
Month to date heating degree days  
Since 1 June heating degree days  
Since 1 July heating degree days  
Cooling Degree Days 1    
Month to date cooling degree days  
Year to date cooling degree days  
Since 1 June cooling degree days  
Growing Degree Days 16 (Base 50)    
Moisture  
Dew Point 50 °F    
Average Humidity 59    
Maximum Humidity 84    
Minimum Humidity 33    
Precipitation  
Precipitation 0.00 in 0.00 in 0.00 in (2017)
Month to date precipitation 0.09  
Year to date precipitation 9.62  
Sea Level Pressure  
Sea Level Pressure 30.02 in    
Wind  
Wind Speed 6 mph (North)    
Max Wind Speed 21 mph    
Max Gust Speed 22 mph    
Visibility 10 miles    
Events      
T = Trace of Precipitation, MM = Missing Value Source: NWS Daily Summary

Daily Weather History Graph

Daily Weather History Graph

Search for Another Location

Airport or City:

Trip Planner

Search our weather history database for the weather conditions in past years. The results will help you decide how hot, cold, wet, or windy it might be!

Date:

Astronomy

Jun. 22, 2007 Rise Set
Actual Time 5:47 AM PDT 8:32 PM PDT
Civil Twilight 5:16 AM PDT 9:03 PM PDT
Nautical Twilight 4:37 AM PDT 9:42 PM PDT
Astronomical Twilight 3:53 AM PDT 10:26 PM PDT
Moon 1:30 PM PDT (6/22) 12:55 AM PDT (6/22)
Length of Visible Light 15h 47m
Length of Day
14h 44m
First Quarter, 52% of the Moon is Illuminated
Jun 22
First Quarter
Jun 30
Full
Jul 7
Last Quarter
Jul 14
New
Jul 21
First Quarter

Hourly Weather History & Observations

Time (PDT) Temp. Dew Point Humidity Pressure Visibility Wind Dir Wind Speed Gust Speed Precip Events Conditions
12:56 AM 60.1 °F 52.0 °F 75% 30.07 in 10.0 mi NNW 4.6 mph - N/A   Clear
1:56 AM 60.1 °F 50.0 °F 69% 30.06 in 10.0 mi Calm Calm - N/A   Clear
2:56 AM 57.9 °F 50.0 °F 75% 30.05 in 10.0 mi Calm Calm - N/A   Clear
3:56 AM 57.9 °F 51.1 °F 78% 30.05 in 10.0 mi Calm Calm - N/A   Clear
4:56 AM 55.9 °F 51.1 °F 84% 30.05 in 10.0 mi SE 3.5 mph - N/A   Clear
5:56 AM 55.9 °F 51.1 °F 84% 30.05 in 10.0 mi SSE 3.5 mph - N/A   Clear
6:56 AM 57.9 °F 52.0 °F 81% 30.05 in 10.0 mi SE 3.5 mph - N/A   Clear
7:56 AM 62.1 °F 52.0 °F 70% 30.04 in 10.0 mi Calm Calm - N/A   Clear
8:56 AM 64.9 °F 50.0 °F 58% 30.05 in 10.0 mi NW 4.6 mph - N/A   Clear
9:56 AM 66.9 °F 51.1 °F 57% 30.04 in 10.0 mi NNW 8.1 mph - N/A   Clear
10:56 AM 68.0 °F 52.0 °F 56% 30.04 in 10.0 mi NNW 6.9 mph - N/A   Clear
11:56 AM 70.0 °F 53.1 °F 55% 30.03 in 10.0 mi North 11.5 mph - N/A   Clear
12:56 PM 72.0 °F 53.1 °F 51% 30.02 in 10.0 mi North 9.2 mph - N/A   Clear
2:56 PM 73.9 °F 53.1 °F 48% 30.00 in 10.0 mi North 18.4 mph - N/A   Clear
3:56 PM 75.0 °F 53.1 °F 46% 29.99 in 10.0 mi North 20.7 mph - N/A   Clear
4:56 PM 77.0 °F 46.0 °F 33% 29.97 in 10.0 mi NNW 13.8 mph 20.7 mph N/A   Clear
5:56 PM 75.9 °F 45.0 °F 33% 29.97 in 10.0 mi NNW 15.0 mph 21.9 mph N/A   Clear
6:56 PM 73.9 °F 45.0 °F 35% 29.96 in 10.0 mi NNW 16.1 mph - N/A   Clear
7:56 PM 69.1 °F 44.1 °F 40% 29.97 in 10.0 mi NNW 12.7 mph - N/A   Clear
8:56 PM 66.0 °F 45.0 °F 47% 29.97 in 10.0 mi NNW 9.2 mph - N/A   Clear
9:56 PM 64.0 °F 46.0 °F 52% 29.98 in 10.0 mi NNW 6.9 mph - N/A   Clear
10:56 PM 61.0 °F 50.0 °F 67% 29.99 in 10.0 mi ENE 9.2 mph - N/A   Clear
11:56 PM 59.0 °F 50.0 °F 72% 29.99 in 10.0 mi East 8.1 mph - N/A   Clear